Temp
-5 -5 -6 -5 -5 -4 -5 -5 -6 -6 -8 -8 -8 -8 -8 -8 -8 -8 -7 -7 -8 -7 -7 -7 -7 -7 -7 -7 -7 -7 -6 -6 -6 -6 -6 -7 -7 -6 -7 -7 -6 -6 -6 -6 -7 -6 -6 -6 -5
-5 -6 -6 -6 -5 -4 -5 -5 -5 -6 -7 -7 -7 -7 -7 -7 -8 -7 -7 -7 -7 -7 -7 -7 -7 -7 -7 -7 -7 -7 -6 -6 -6 -6 -7 -7 -6 -7 -7 -7 -6 -6 -7 -6 -6 -6 -6 -5 -5
-5 -6 -6 -5 -5 -5 -5 -5 -5 -6 -7 -7 -6 -7 -7 -7 -7 -7 -7 -7 -7 -7 -7 -7 -7 -7 -7 -7 -7 -7 -7 -7 -7 -6 -6 -7 -7 -7 -7 -7 -6 -6 -6 -6 -6 -6 -5 -5 -5
-5 -5 -6 -5 -5 -5 -5 -5 -6 -6 -6 -6 -6 -6 -7 -7 -6 -6 -7 -7 -8 -7 -7 -7 -7 -7 -7 -7 -7 -7 -7 -7 -7 -6 -6 -7 -7 -7 -7 -7 -6 -6 -6 -6 -6 -6 -5 -5 -5
-5 -5 -5 -5 -5 -5 -5 -5 -5 -5 -6 -6 -6 -6 -6 -6 -6 -6 -6 -6 -7 -7 -7 -7 -7 -7 -7 -7 -7 -7 -7 -7 -6 -6 -7 -7 -7 -7 -7 -7 -7 -6 -6 -5 -5 -5 -5 -5 -5
-5 -5 -4 -5 -4 -5 -5 -5 -4 -5 -5 -6 -6 -6 -6 -6 -6 -5 -6 -6 -6 -6 -6 -6 -7 -7 -7 -7 -7 -7 -7 -7 -6 -7 -7 -7 -7 -7 -6 -6 -6 -6 -5 -5 -5 -5 -6 -6 -6
-4 -5 -5 -5 -4 -4 -5 -5 -4 -5 -5 -6 -6 -5 -5 -6 -6 -5 -6 -6 -6 -6 -5 -6 -6 -7 -6 -7 -7 -7 -7 -7 -7 -7 -7 -7 -7 -7 -6 -6 -6 -5 -6 -6 -6 -6 -6 -6 -7
-4 -5 -5 -5 -5 -5 -4 -4 -4 -5 -5 -6 -6 -6 -5 -6 -6 -5 -6 -6 -6 -6 -6 -6 -6 -6 -6 -6 -6 -7 -6 -7 -7 -7 -7 -7 -7 -6 -6 -6 -6 -6 -6 -6 -6 -6 -6 -7 -7
-5 -4 -5 -5 -5 -5 -5 -4 -4 -5 -6 -5 -6 -6 -5 -6 -5 -5 -5 -5 -6 -5 -5 -6 -6 -6 -6 -6 -6 -6 -6 -6 -7 -7 -7 -7 -7 -6 -6 -6 -6 -6 -6 -6 -6 -7 -7 -7 -7
-4 -4 -5 -5 -5 -5 -5 -4 -4 -4 -5 -5 -5 -6 -6 -5 -5 -5 -5 -5 -5 -5 -6 -6 -6 -6 -6 -6 -6 -6 -6 -6 -6 -7 -7 -7 -6 -6 -6 -6 -6 -6 -6 -6 -7 -7 -7 -7 -7
-4 -4 -4 -5 -5 -5 -5 -5 -4 -4 -5 -5 -6 -5 -6 -6 -5 -5 -5 -5 -5 -5 -6 -6 -6 -6 -6 -6 -6 -6 -6 -6 -6 -6 -6 -6 -6 -6 -6 -6 -6 -6 -6 -6 -7 -7 -7 -7 -8
-3 -4 -4 -5 -5 -4 -5 -5 -5 -4 -4 -5 -5 -5 -5 -6 -5 -5 -5 -5 -5 -5 -5 -5 -5 -5 -5 -5 -6 -6 -6 -6 -6 -6 -6 -6 -6 -6 -6 -6 -6 -6 -6 -6 -7 -7 -7 -8 -8
-4 -4 -5 -5 -5 -5 -5 -5 -5 -5 -4 -5 -5 -5 -5 -5 -5 -5 -5 -5 -5 -5 -5 -5 -5 -5 -5 -5 -6 -6 -6 -6 -6 -6 -6 -5 -6 -6 -6 -6 -6 -6 -6 -6 -7 -7 -8 -8 -8
-4 -4 -4 -4 -5 -5 -4 -4 -4 -5 -5 -5 -4 -5 -5 -5 -5 -5 -4 -5 -5 -6 -5 -5 -5 -5 -5 -6 -6 -6 -6 -6 -6 -6 -5 -5 -6 -6 -6 -6 -6 -6 -6 -6 -7 -7 -8 -8 -8
-4 -5 -4 -5 -5 -4 -4 -4 -4 -5 -5 -5 -5 -5 -5 -5 -5 -4 -4 -4 -5 -6 -6 -6 -5 -5 -6 -6 -6 -5 -6 -6 -6 -5 -5 -6 -6 -6 -6 -6 -6 -6 -6 -6 -7 -7 -7 -7 -8
-4 -5 -4 -5 -4 -5 -4 -4 -5 -4 -5 -5 -6 -5 -4 -5 -5 -4 -4 -4 -4 -5 -6 -6 -5 -6 -6 -6 -6 -5 -5 -6 -5 -5 -5 -6 -5 -6 -6 -6 -6 -6 -6 -7 -7 -7 -7 -8 -8
-5 -5 -5 -4 -5 -5 -5 -5 -5 -5 -5 -5 -5 -5 -5 -4 -5 -5 -4 -4 -4 -5 -5 -5 -6 -6 -6 -6 -5 -5 -5 -5 -5 -5 -5 -5 -5 -5 -6 -6 -6 -6 -6 -7 -7 -7 -7 -8 -8
-4 -6 -5 -5 -5 -4 -4 -4 -5 -5 -5 -5 -5 -5 -5 -4 -4 -5 -4 -4 -4 -4 -4 -5 -5 -5 -5 -5 -5 -5 -5 -5 -5 -5 -5 -5 -5 -5 -6 -6 -6 -6 -6 -6 -7 -7 -8 -8 -8
-6 -6 -6 -6 -5 -5 -4 -4 -5 -4 -5 -5 -5 -5 -5 -4 -4 -5 -5 -4 -4 -4 -4 -4 -5 -5 -6 -6 -5 -4 -5 -5 -5 -5 -5 -5 -5 -5 -6 -5 -5 -6 -6 -6 -6 -7 -7 -8 -8
-6 -6 -6 -6 -5 -6 -5 -5 -3 -4 -4 -5 -5 -5 -5 -6 -5 -5 -5 -5 -4 -4 -4 -4 -4 -4 -5 -5 -5 -5 -4 -5 -5 -5 -5 -5 -5 -5 -6 -5 -5 -6 -6 -6 -6 -7 -7 -7 -8
-5 -6 -5 -6 -6 -6 -5 -5 -5 -5 -4 -4 -5 -4 -5 -6 -5 -5 -5 -5 -5 -5 -5 -4 -4 -4 -4 -5 -5 -5 -5 -5 -5 -6 -6 -6 -6 -6 -6 -5 -5 -6 -6 -6 -6 -6 -7 -7 -7
-6 -6 -6 -6 -6 -5 -5 -5 -4 -5 -4 -4 -4 -4 -4 -5 -6 -5 -5 -5 -5 -5 -5 -5 -4 -4 -4 -4 -4 -5 -5 -5 -5 -5 -6 -6 -6 -6 -6 -6 -6 -6 -6 -6 -6 -6 -7 -7 -7
-6 -6 -6 -6 -5 -5 -6 -4 -5 -5 -5 -4 -5 -4 -4 -4 -5 -6 -5 -5 -5 -5 -5 -5 -5 -5 -5 -4 -4 -4 -4 -4 -4 -5 -5 -6 -6 -6 -7 -6 -6 -6 -6 -6 -6 -7 -7 -7 -7
-6 -7 -6 -6 -7 -5 -6 -6 -5 -5 -6 -6 -6 -5 -6 -5 -5 -5 -5 -5 -4 -4 -4 -5 -5 -5 -5 -5 -4 -5 -5 -5 -5 -5 -6 -6 -6 -6 -6 -6 -7 -7 -6 -6 -6 -6 -6 -6 -6
-6 -7 -7 -7 -7 -4 -6 -6 -3 -6 -6 -7 -7 -6 -6 -6 -6 -6 -5 -5 -5 -4 -4 -5 -5 -5 -5 -5 -5 -5 -5 -5 -6 -6 -6 -6 -6 -6 -6 -6 -6 -6 -6 -6 -6 -6 -6 -6 -6
-7 -6 -7 -7 -7 -6 -6 -4 -4 -5 -7 -7 -7 -7 -6 -5 -6 -6 -5 -5 -5 -6 -5 -5 -5 -5 -5 -5 -5 -5 -5 -5 -6 -6 -6 -6 -6 -6 -6 -6 -6 -6 -6 -6 -6 -5 -5 -5 -5
-8 -7 -7 -7 -7 -7 -6 -4 -4 -5 -7 -7 -7 -8 -7 -6 -5 -6 -6 -5 -5 -5 -5 -5 -5 -5 -5 -5 -5 -5 -5 -6 -6 -6 -6 -6 -6 -6 -6 -6 -6 -6 -6 -6 -5 -5 -5 -5 -6
-8 -8 -8 -8 -7 -7 -6 -6 -5 -5 -6 -7 -7 -7 -7 -7 -6 -6 -6 -6 -5 -5 -5 -5 -5 -5 -5 -5 -5 -5 -6 -6 -6 -6 -6 -6 -6 -6 -6 -6 -6 -6 -5 -5 -6 -6 -5 -5 -5
-9 -8 -9 -9 -9 -8 -6 -6 -6 -6 -6 -7 -7 -7 -7 -7 -7 -7 -6 -7 -6 -5 -5 -5 -5 -5 -5 -5 -6 -5 -5 -6 -6 -6 -6 -6 -6 -6 -6 -6 -5 -6 -5 -5 -5 -5 -5 -5 -5
-10 -10 -10 -9 -9 -9 -8 -5 -7 -7 -7 -7 -8 -7 -7 -8 -7 -7 -7 -6 -6 -5 -5 -5 -5 -5 -6 -5 -5 -6 -6 -6 -6 -6 -6 -6 -6 -6 -6 -6 -6 -6 -6 -6 -5 -5 -5 -5 -5
Height
5888 5886 5886 5886 5885 5880 5880 5881 5877 5875 5874 5874 5873 5873 5874 5873 5876 5880 5879 5879 5880 5880 5882 5882 5883 5884 5886 5888 5890 5892 5894 5895 5897 5898 5899 5901 5901 5903 5904 5908 5911 5911 5913 5913 5913 5914 5915 5917 5917
5890 5890 5889 5887 5885 5882 5882 5881 5879 5879 5877 5876 5877 5877 5877 5876 5877 5879 5880 5881 5884 5884 5885 5886 5887 5887 5888 5891 5892 5894 5895 5896 5897 5899 5900 5900 5903 5904 5908 5912 5914 5915 5916 5917 5918 5918 5920 5921 5920
5892 5893 5893 5890 5886 5884 5882 5882 5882 5880 5879 5879 5880 5880 5878 5879 5879 5881 5882 5882 5885 5888 5888 5889 5891 5891 5892 5894 5896 5897 5898 5899 5901 5902 5903 5903 5904 5907 5911 5916 5918 5918 5919 5922 5922 5923 5924 5924 5924
5893 5895 5896 5894 5890 5888 5885 5884 5884 5883 5882 5884 5884 5883 5881 5882 5881 5883 5884 5885 5886 5889 5891 5892 5893 5894 5896 5898 5899 5900 5900 5902 5904 5907 5907 5909 5910 5912 5916 5918 5921 5922 5924 5925 5927 5928 5928 5927 5927
5895 5896 5897 5894 5893 5891 5888 5886 5886 5885 5885 5886 5886 5886 5885 5884 5886 5886 5887 5888 5890 5892 5893 5895 5896 5897 5899 5900 5902 5904 5903 5907 5908 5911 5912 5913 5916 5918 5920 5921 5923 5925 5926 5930 5931 5931 5931 5930 5929
5895 5897 5899 5898 5896 5894 5892 5890 5891 5888 5888 5889 5889 5888 5888 5889 5890 5889 5891 5892 5894 5895 5896 5897 5899 5901 5902 5902 5904 5907 5909 5910 5912 5914 5917 5919 5921 5922 5923 5924 5926 5929 5931 5933 5933 5933 5933 5932 5932
5895 5898 5900 5900 5900 5896 5895 5893 5892 5891 5890 5891 5892 5892 5890 5891 5894 5892 5893 5895 5897 5898 5899 5900 5901 5903 5904 5905 5907 5910 5911 5913 5915 5918 5920 5922 5923 5925 5927 5929 5932 5934 5935 5936 5935 5936 5936 5935 5935
5898 5901 5901 5901 5902 5900 5899 5898 5895 5894 5894 5894 5894 5894 5893 5892 5895 5895 5896 5897 5900 5901 5902 5903 5904 5905 5906 5908 5910 5913 5915 5916 5918 5920 5922 5924 5927 5929 5931 5933 5935 5937 5937 5938 5937 5937 5939 5939 5939
5900 5902 5902 5904 5904 5903 5903 5901 5897 5896 5895 5897 5897 5897 5896 5894 5896 5897 5898 5899 5901 5902 5904 5905 5906 5907 5909 5909 5912 5915 5917 5918 5920 5923 5925 5928 5930 5932 5935 5936 5938 5939 5940 5940 5940 5941 5942 5941 5942
5904 5903 5904 5904 5904 5904 5903 5902 5900 5900 5897 5899 5899 5899 5898 5897 5898 5898 5899 5900 5902 5904 5905 5906 5907 5908 5909 5912 5915 5917 5919 5922 5925 5927 5929 5931 5934 5937 5939 5940 5941 5941 5942 5943 5943 5945 5945 5946 5946
5901 5903 5904 5905 5906 5907 5906 5902 5903 5903 5901 5900 5903 5901 5901 5901 5901 5901 5901 5902 5903 5904 5905 5907 5908 5910 5912 5914 5916 5920 5922 5925 5928 5931 5933 5934 5937 5940 5942 5943 5943 5943 5944 5946 5947 5948 5949 5949 5949
5904 5903 5903 5904 5906 5907 5908 5907 5906 5905 5904 5903 5905 5904 5903 5904 5904 5904 5904 5902 5902 5904 5907 5908 5910 5912 5914 5917 5919 5921 5924 5927 5930 5933 5935 5937 5939 5942 5944 5945 5946 5947 5948 5949 5951 5952 5952 5952 5952
5906 5905 5907 5907 5910 5908 5909 5909 5909 5907 5905 5905 5907 5908 5907 5907 5908 5907 5907 5905 5905 5907 5908 5911 5912 5914 5917 5919 5922 5924 5927 5929 5932 5934 5937 5939 5941 5944 5946 5948 5949 5950 5952 5952 5953 5953 5955 5955 5956
5904 5905 5908 5907 5911 5910 5912 5912 5911 5910 5907 5906 5907 5909 5910 5910 5911 5911 5909 5908 5908 5910 5909 5911 5914 5916 5919 5921 5923 5926 5928 5930 5933 5936 5939 5942 5945 5946 5948 5950 5952 5953 5954 5954 5955 5956 5957 5958 5959
5904 5906 5906 5906 5908 5911 5912 5913 5913 5910 5908 5907 5907 5910 5911 5912 5913 5913 5913 5911 5910 5912 5912 5913 5915 5918 5920 5922 5925 5928 5930 5931 5935 5938 5942 5945 5948 5949 5950 5952 5954 5955 5955 5956 5957 5959 5960 5961 5962
5903 5904 5905 5907 5909 5910 5912 5911 5913 5910 5908 5909 5908 5912 5913 5914 5914 5915 5915 5914 5912 5913 5914 5916 5919 5921 5922 5924 5926 5929 5932 5934 5937 5941 5944 5948 5950 5951 5952 5953 5955 5957 5958 5959 5960 5961 5963 5964 5966
5900 5903 5905 5908 5908 5906 5908 5908 5909 5911 5912 5909 5909 5912 5914 5915 5915 5916 5916 5917 5917 5916 5917 5918 5921 5922 5924 5926 5929 5931 5934 5937 5940 5942 5946 5949 5951 5952 5953 5955 5957 5959 5959 5960 5962 5964 5966 5967 5968
5898 5901 5903 5904 5906 5903 5904 5905 5907 5909 5912 5912 5912 5912 5914 5914 5915 5917 5917 5918 5918 5920 5920 5921 5922 5925 5927 5929 5931 5934 5937 5940 5942 5945 5947 5951 5953 5954 5955 5957 5958 5960 5961 5961 5963 5966 5967 5969 5970
5897 5899 5899 5900 5904 5906 5906 5905 5906 5908 5910 5912 5913 5912 5913 5914 5915 5916 5919 5920 5920 5921 5923 5923 5925 5926 5928 5931 5933 5936 5938 5941 5944 5947 5950 5953 5955 5956 5957 5958 5960 5962 5963 5963 5963 5966 5968 5970 5970
5892 5895 5897 5896 5901 5904 5904 5906 5906 5907 5907 5909 5912 5913 5913 5913 5916 5916 5919 5921 5921 5922 5923 5924 5927 5928 5930 5933 5935 5937 5938 5941 5944 5948 5951 5954 5956 5957 5958 5959 5959 5961 5963 5964 5964 5965 5968 5969 5970
5887 5888 5892 5894 5896 5900 5900 5904 5906 5905 5906 5906 5908 5912 5912 5912 5914 5917 5918 5920 5922 5923 5923 5925 5926 5929 5931 5935 5937 5939 5941 5943 5946 5948 5951 5953 5955 5957 5958 5959 5960 5960 5961 5962 5964 5965 5967 5968 5970
5882 5882 5886 5889 5892 5894 5897 5899 5903 5904 5906 5907 5907 5909 5911 5911 5913 5915 5918 5919 5920 5921 5923 5925 5926 5929 5932 5934 5937 5939 5940 5942 5944 5947 5950 5952 5955 5956 5957 5959 5959 5960 5960 5960 5962 5964 5966 5967 5967
5876 5877 5879 5884 5886 5888 5892 5895 5900 5901 5905 5908 5908 5907 5908 5909 5909 5911 5914 5916 5916 5919 5921 5923 5925 5928 5931 5933 5935 5937 5940 5941 5944 5946 5949 5952 5953 5955 5956 5957 5957 5957 5958 5958 5959 5961 5963 5964 5965
5868 5871 5873 5876 5879 5880 5888 5886 5895 5898 5902 5903 5903 5906 5906 5906 5907 5907 5910 5913 5915 5916 5917 5920 5923 5925 5928 5931 5933 5935 5938 5941 5943 5946 5948 5950 5951 5953 5954 5954 5955 5955 5957 5957 5958 5959 5960 5962 5963
5861 5864 5865 5867 5869 5874 5878 5879 5887 5894 5896 5897 5896 5899 5899 5899 5901 5903 5904 5908 5912 5914 5915 5917 5920 5923 5925 5927 5930 5933 5935 5938 5941 5943 5945 5947 5949 5950 5950 5951 5951 5952 5953 5954 5955 5956 5957 5959 5959
5853 5855 5857 5857 5860 5865 5863 5870 5879 5886 5890 5894 5894 5894 5895 5896 5897 5898 5900 5902 5906 5909 5911 5913 5916 5918 5922 5924 5926 5929 5933 5935 5937 5940 5942 5943 5945 5947 5947 5947 5947 5947 5949 5949 5951 5953 5954 5955 5955
5846 5846 5847 5849 5852 5854 5857 5863 5871 5879 5884 5885 5886 5886 5888 5893 5893 5895 5896 5898 5901 5905 5907 5908 5911 5914 5917 5920 5922 5925 5928 5932 5934 5936 5938 5940 5940 5942 5944 5943 5943 5944 5944 5945 5947 5948 5949 5950 5951
5839 5840 5840 5840 5841 5842 5846 5851 5857 5865 5870 5872 5876 5879 5882 5886 5889 5890 5891 5893 5895 5899 5901 5902 5904 5908 5911 5914 5917 5920 5923 5926 5928 5931 5934 5937 5938 5938 5939 5939 5940 5940 5941 5941 5942 5943 5945 5947 5947
5827 5829 5832 5833 5833 5831 5835 5841 5847 5852 5856 5861 5867 5872 5876 5877 5883 5884 5887 5887 5887 5890 5892 5896 5899 5902 5906 5909 5912 5915 5919 5921 5923 5926 5929 5932 5933 5934 5935 5936 5936 5936 5936 5938 5939 5939 5940 5941 5942
5823 5821 5821 5821 5824 5823 5822 5832 5836 5836 5842 5850 5858 5862 5865 5872 5875 5876 5880 5880 5883 5884 5886 5889 5891 5895 5900 5902 5905 5909 5912 5915 5918 5921 5923 5925 5927 5929 5929 5930 5932 5932 5931 5932 5934 5935 5937 5937 5936
Wind_Speed
14 17 14 13 19 22 20 17 15 16 15 12 16 16 17 18 15 13 13 14 17 20 20 20 20 18 16 15 15 14 13 11 14 15 12 9 19 17 17 24 23 23 24 24 25 26 26 24 23
10 13 17 12 15 19 19 20 19 14 14 13 13 13 14 16 14 13 14 15 15 19 23 21 20 18 17 16 13 12 10 10 15 14 12 11 23 28 30 28 21 22 24 25 25 25 22 21 20
6 8 11 14 17 18 20 21 19 14 13 11 12 12 12 12 14 13 13 16 15 14 21 22 21 18 17 17 14 12 13 15 24 26 23 24 32 33 27 23 21 22 24 23 24 21 19 18 17
11 10 8 10 18 18 19 19 17 15 12 11 13 15 15 11 13 13 16 16 17 18 20 20 20 19 17 17 16 13 16 19 28 30 26 25 28 27 26 24 22 25 25 23 21 19 18 16 14
6 11 9 16 19 19 20 19 17 18 14 12 13 14 15 15 11 14 17 19 20 21 24 24 20 18 18 17 17 17 19 31 28 27 26 26 24 23 22 24 27 27 25 21 19 17 15 13 15
2 6 10 14 19 21 19 18 15 19 18 15 12 14 15 13 12 15 15 17 17 20 22 22 19 16 15 16 16 19 23 25 23 22 23 23 23 23 24 28 30 28 23 20 19 16 15 17 17
8 13 12 10 12 19 17 17 17 19 21 20 13 11 15 13 10 14 14 14 16 16 18 19 19 17 14 15 15 18 21 20 19 20 20 23 24 24 26 28 28 24 22 18 17 17 19 20 21
13 9 9 3 8 14 15 15 18 18 21 21 17 10 13 13 9 12 13 13 14 13 14 16 16 16 16 15 16 18 20 21 20 20 22 22 23 25 27 26 24 20 20 17 18 20 20 23 24
11 14 12 10 9 14 14 12 17 19 20 19 20 15 11 13 11 12 12 13 13 13 13 14 15 16 15 18 18 17 19 18 18 19 21 22 22 28 26 24 22 20 18 18 20 19 23 25 24
12 17 11 8 10 11 12 14 14 16 19 18 17 19 15 12 11 11 12 12 13 13 13 13 15 15 15 17 19 18 19 20 18 20 22 23 24 27 24 22 21 19 19 19 21 21 24 23 22
4 14 14 13 11 10 9 14 13 12 16 17 15 19 20 14 12 10 13 13 12 13 15 15 15 15 14 16 19 18 17 18 20 21 24 25 27 24 21 20 20 19 19 20 21 22 23 22 22
9 12 17 14 12 8 8 10 10 11 12 16 13 16 21 17 14 10 10 13 14 14 15 15 15 14 15 15 19 18 17 17 19 22 23 27 26 23 19 18 18 19 18 21 22 23 21 21 21
6 7 11 10 11 11 7 9 6 8 11 12 14 12 17 18 15 11 9 12 12 13 14 14 15 14 13 15 16 17 16 16 19 24 26 27 25 22 18 16 16 19 17 20 23 22 21 21 19
5 6 6 8 14 8 1 5 4 7 10 11 12 12 12 16 14 12 14 16 15 12 15 17 16 16 16 16 14 15 16 17 24 26 28 25 23 21 18 16 14 17 17 19 22 21 19 18 14
4 5 6 9 16 5 7 5 6 8 9 10 10 10 10 13 15 13 14 16 16 15 13 15 18 21 18 16 16 16 17 23 30 29 26 23 21 19 18 16 15 16 17 19 22 20 18 17 12
8 9 6 3 13 12 9 6 6 8 9 6 8 7 9 11 13 14 12 13 15 15 15 14 17 19 18 21 20 18 21 29 30 28 25 21 19 18 16 15 17 17 19 20 20 19 16 15 11
15 9 9 10 16 12 7 8 7 7 6 11 8 7 9 9 12 12 12 13 13 13 12 13 15 17 22 20 20 20 25 28 27 27 24 19 17 17 15 13 15 18 20 20 20 17 15 14 10
15 13 13 10 15 15 15 10 8 7 7 6 9 7 8 10 10 11 11 11 12 13 13 13 17 18 19 20 20 22 26 26 26 24 22 17 15 14 13 12 14 17 19 21 19 17 15 12 10
17 15 19 12 15 14 10 7 12 11 12 10 9 11 8 8 10 9 10 11 11 11 11 11 14 18 17 19 21 23 26 25 24 21 17 14 11 11 9 11 11 15 14 19 19 16 14 11 9
17 21 21 27 23 20 22 21 14 13 12 13 12 10 9 6 9 11 9 11 11 10 12 12 10 13 16 18 21 25 27 26 23 19 16 11 9 9 8 8 10 11 13 13 17 16 13 11 9
22 27 27 27 30 25 29 24 19 18 16 15 18 15 12 12 9 11 15 13 11 12 12 13 15 13 14 16 20 23 22 21 22 19 17 14 11 8 7 6 7 9 12 13 13 17 15 13 10
24 28 28 29 28 28 27 29 26 28 21 16 17 19 17 15 14 11 12 17 17 16 16 15 14 16 15 16 19 21 22 22 22 20 18 16 13 10 9 8 8 7 9 14 16 17 17 16 14
29 30 30 29 28 29 26 25 21 23 26 19 19 20 18 18 17 16 15 16 22 21 20 19 18 16 17 19 19 20 20 20 20 19 18 16 14 13 12 12 12 12 11 12 18 20 20 20 18
33 33 33 32 30 33 28 34 25 21 17 18 20 16 13 17 20 19 17 18 19 20 22 21 20 20 20 19 20 21 19 17 17 17 16 16 15 15 16 16 15 15 15 15 15 21 22 20 19
32 34 36 38 39 35 33 36 27 23 23 23 29 25 22 20 23 21 20 17 18 15 20 21 20 20 22 23 21 21 22 21 19 19 17 16 15 16 17 16 18 18 19 19 19 19 22 24 22
25 31 36 43 43 41 43 39 32 29 24 25 28 27 29 25 26 25 24 20 21 21 20 22 23 22 23 23 24 24 22 24 23 20 19 17 16 16 17 17 17 17 19 21 22 22 22 24 24
22 27 31 36 42 46 47 42 35 30 30 32 36 30 33 29 26 27 25 25 24 24 23 22 25 26 25 26 27 25 26 24 24 23 22 20 20 17 17 16 16 18 20 22 24 25 25 23 24
26 26 27 30 34 41 48 49 45 39 36 44 37 38 37 30 29 30 30 27 26 25 25 26 26 26 30 29 29 28 27 27 29 28 24 23 23 21 20 18 18 20 21 22 25 25 25 24 24
33 32 29 27 32 37 37 43 49 47 44 42 45 40 43 33 35 31 28 30 30 33 34 28 27 29 27 31 30 29 28 28 29 28 26 24 24 25 23 22 20 22 22 24 23 25 25 25 26
32 34 35 34 32 33 38 33 39 51 52 45 43 45 46 40 36 32 36 38 34 31 33 32 29 30 30 29 31 32 32 31 29 28 27 28 26 27 27 27 25 24 25 26 25 27 27 27 25
Wind_Direction
57 60 57 56 57 56 47 49 57 68 71 76 85 94 96 96 95 94 94 103 120 121 130 127 123 118 118 115 111 107 106 115 126 133 151 125 129 136 134 119 117 115 106 101 99 102 101 99 97
58 72 55 45 50 51 52 47 51 68 78 81 80 86 92 96 96 96 103 103 110 123 128 129 126 126 122 115 108 101 92 103 124 118 123 130 134 128 118 112 106 107 103 103 103 100 101 99 93
66 95 62 48 55 54 54 50 48 62 66 76 84 84 85 91 102 106 104 109 113 121 124 129 131 128 121 116 108 104 95 116 118 117 109 122 127 117 114 119 123 100 102 101 102 97 93 85 80
74 94 83 69 59 59 56 53 54 59 69 85 91 80 81 78 91 107 103 105 111 120 121 128 122 118 122 119 110 102 107 126 124 111 108 106 106 104 104 111 107 105 110 102 103 102 94 83 73
116 67 96 68 71 73 66 56 52 63 70 78 82 84 81 86 94 102 104 112 115 117 115 116 114 118 117 117 110 103 106 120 118 122 121 114 110 109 111 111 114 113 110 112 107 96 89 84 79
195 88 79 87 76 73 73 66 64 72 73 85 85 94 91 88 100 102 108 113 122 122 119 120 121 118 117 116 113 115 113 116 122 122 122 119 107 104 110 112 116 116 113 111 100 92 91 91 87
131 145 72 83 72 77 75 79 76 69 69 65 68 89 100 95 93 104 113 123 128 129 123 122 122 122 120 118 115 120 127 126 127 124 120 113 106 112 120 120 118 117 115 107 101 97 94 92 92
125 142 113 61 76 74 80 85 86 82 75 70 65 73 100 107 108 108 114 124 133 138 132 124 122 124 123 121 120 123 129 134 134 128 118 114 114 125 126 124 119 120 108 105 97 95 98 96 94
158 129 115 103 86 73 63 75 81 84 81 70 70 61 91 108 124 121 124 128 131 136 134 133 133 129 128 128 129 129 129 127 120 117 116 118 126 134 132 127 124 112 107 103 99 100 100 97 100
65 120 112 117 89 84 87 64 67 80 86 73 69 70 72 101 111 122 134 137 140 143 139 143 140 135 133 133 132 131 132 125 116 117 121 127 135 139 136 126 119 110 105 105 100 106 99 100 102
56 128 137 115 104 92 89 86 63 67 78 83 66 73 71 82 104 113 129 131 136 141 144 147 144 141 142 141 137 133 132 123 117 118 126 133 139 141 133 124 113 109 111 105 107 103 101 103 101
91 111 140 130 108 98 90 89 89 67 78 87 78 78 77 74 88 113 136 135 138 144 148 147 143 141 141 141 144 140 135 125 117 124 133 137 139 141 132 117 113 112 115 113 111 107 107 106 99
213 180 169 138 131 112 87 88 111 101 85 89 87 76 84 80 88 93 115 125 127 133 143 150 144 143 139 141 148 148 130 126 126 132 137 137 140 133 124 114 112 118 115 115 112 112 110 105 99
183 175 170 203 155 142 205 48 116 124 112 103 102 96 89 88 87 89 104 111 108 121 133 137 143 142 140 142 146 145 136 135 139 139 140 141 136 128 120 116 115 122 116 117 107 107 107 101 95
137 189 211 116 177 137 137 79 92 100 105 121 113 117 111 104 98 102 104 110 102 108 125 133 140 140 135 141 141 139 138 139 141 142 142 139 131 126 120 121 120 124 122 119 109 105 100 87 88
207 186 211 74 142 144 159 130 95 68 110 140 118 143 127 117 113 112 110 104 100 95 119 133 148 152 140 141 142 142 140 141 142 143 138 136 130 123 119 124 128 130 125 125 116 115 106 90 78
228 201 192 195 159 151 143 163 143 96 74 127 141 159 155 136 122 119 122 118 112 101 101 124 150 147 141 140 142 144 145 146 144 142 139 138 134 124 115 118 132 138 133 131 124 120 107 93 83
245 183 198 210 205 189 190 178 169 154 146 134 139 147 175 166 142 131 134 132 126 119 111 119 135 143 142 141 144 148 150 148 148 147 146 143 138 126 119 120 135 150 142 137 132 132 120 107 98
243 237 218 221 216 229 235 238 187 187 179 177 171 159 166 180 165 146 151 146 133 136 130 125 141 152 157 156 158 158 154 156 155 154 151 148 139 127 120 107 122 153 151 145 139 140 134 129 120
234 232 233 245 231 244 253 266 267 212 196 196 198 179 169 164 185 173 175 176 170 151 149 144 144 159 168 174 172 169 163 162 164 163 166 165 158 149 143 133 122 138 166 159 150 145 151 156 157
240 227 241 234 249 246 249 257 256 240 222 215 208 200 179 180 191 198 189 191 191 181 167 164 158 166 168 175 177 172 173 170 170 173 178 183 190 179 179 173 151 147 157 176 178 168 170 179 188
246 246 240 242 244 244 247 253 253 268 255 231 219 214 203 187 194 205 216 209 202 200 192 184 174 172 175 175 171 178 182 181 182 189 190 196 203 206 210 212 210 195 175 175 190 192 192 194 205
247 252 256 249 247 248 247 245 246 249 254 256 242 226 215 215 194 208 216 215 215 199 198 198 190 187 186 188 190 189 194 195 197 196 202 203 209 219 230 232 234 227 215 200 195 201 203 208 212
255 250 254 255 250 247 237 246 219 256 265 227 225 226 219 221 209 203 216 225 221 208 202 199 201 197 197 192 193 193 197 197 190 197 204 214 226 236 243 248 243 240 232 223 214 212 212 215 221
256 251 250 250 252 253 242 241 239 230 249 227 228 222 219 213 209 209 213 218 228 227 211 204 207 207 208 203 201 206 201 196 202 207 217 226 232 240 246 250 254 247 235 227 224 215 218 225 231
262 260 249 248 250 254 253 247 242 231 233 227 227 229 229 226 208 210 210 206 207 218 220 211 209 212 215 213 210 211 211 210 211 220 227 230 225 240 251 249 249 243 234 224 223 221 222 227 235
263 264 266 259 254 252 253 257 249 237 222 231 220 220 237 234 229 212 217 209 207 212 218 217 215 214 215 218 217 215 215 217 222 225 234 232 230 230 241 247 246 245 231 225 224 224 225 230 237
265 265 269 270 263 257 253 251 250 243 227 225 226 229 230 232 227 219 218 218 213 221 221 220 224 222 219 217 221 221 218 221 228 234 234 234 237 234 234 235 237 242 236 228 227 232 236 237 242
275 273 272 272 268 269 264 255 251 245 237 224 230 237 231 221 212 220 218 221 216 222 224 225 225 227 228 226 225 228 225 225 231 235 238 238 240 246 244 246 239 236 242 242 240 238 240 242 246
266 269 274 275 275 270 269 265 256 248 242 233 220 229 231 220 211 216 216 223 225 228 230 225 224 225 229 229 228 227 229 229 229 235 237 239 242 248 249 250 249 247 241 243 247 249 247 244 246